Theta_e
315 315 315 315 315 316 316 316 315 315 315 316 318 320 322 323 326 329 333 332 333 330 331 331 334 334 332 333 339 344 349 351 347 352 350 350 350 351 350 350 349 348 349 347 347
318 318 317 317 316 316 316 316 316 315 315 316 317 320 322 323 326 330 329 333 333 332 331 332 334 333 332 331 336 342 348 345 343 347 350 350 349 351 351 351 350 349 348 347 346
322 321 320 319 318 317 317 317 317 316 315 316 317 319 321 323 326 328 330 332 333 333 333 332 333 332 333 330 332 343 347 344 346 348 349 350 350 349 351 353 350 350 348 348 347
323 323 322 321 320 319 318 317 317 317 316 316 316 318 320 322 330 328 330 332 333 334 332 331 331 333 332 332 330 344 344 343 347 349 350 351 349 349 349 349 348 347 343 348 348
321 322 323 323 322 322 320 318 317 317 317 317 316 317 319 321 326 328 329 333 333 332 331 330 332 332 332 331 331 335 344 347 344 346 347 349 349 349 348 347 346 345 345 348 348
319 320 321 322 323 323 322 320 318 318 318 317 316 316 318 322 326 328 329 332 333 332 330 329 330 330 331 329 335 342 345 346 343 344 347 349 349 348 347 348 348 347 347 347 348
318 319 320 321 322 323 323 322 320 318 318 318 317 316 317 324 325 326 329 328 330 332 330 330 330 329 328 330 334 340 339 338 341 341 346 349 351 350 347 347 348 348 348 348 347
317 318 318 319 320 322 323 323 321 318 317 318 318 317 318 321 325 326 328 328 327 327 328 329 328 328 328 325 326 332 338 337 335 340 344 348 346 346 347 347 348 348 348 348 348
315 316 317 318 319 320 322 323 322 317 317 318 318 318 317 317 320 326 328 328 327 327 327 327 327 326 326 328 330 331 332 331 331 338 345 348 342 345 347 347 348 349 348 348 348
314 315 316 317 318 319 321 323 321 316 316 317 318 320 318 322 318 323 328 328 328 326 327 327 326 329 326 328 331 330 329 329 330 330 337 339 343 341 346 347 347 348 349 348 348
314 314 315 316 317 318 320 322 319 323 317 318 318 319 323 324 325 320 325 326 326 326 329 325 329 330 329 327 327 327 328 329 330 329 331 334 338 339 342 347 347 346 347 348 347
313 314 314 315 316 318 320 322 323 324 325 324 323 320 321 323 324 324 324 325 325 328 324 327 329 328 326 326 326 327 328 330 330 329 331 338 344 345 345 346 347 347 346 346 346
313 314 314 315 316 318 320 323 325 325 326 325 324 323 323 323 324 325 323 325 325 326 326 328 327 325 326 327 327 328 328 329 329 328 336 345 340 343 343 346 346 346 346 345 344
314 314 314 314 318 321 325 326 326 326 326 325 324 324 323 324 325 325 322 326 324 326 324 327 327 326 328 328 327 329 327 327 328 330 331 339 332 336 333 337 341 343 346 345 343
316 314 314 315 324 328 326 327 327 325 331 326 324 323 324 325 324 325 322 324 326 325 325 328 327 327 327 328 326 329 327 327 328 329 329 331 335 330 331 335 335 336 345 345 344
322 318 316 317 327 327 327 326 325 327 332 327 325 326 325 325 324 321 323 323 322 325 325 327 324 325 327 326 326 327 328 328 325 328 331 329 329 329 330 331 332 338 343 346 345
327 324 321 321 326 327 327 326 328 332 328 330 327 327 325 325 325 324 325 326 327 327 327 326 326 327 325 328 327 327 328 332 333 332 332 325 330 331 330 330 332 337 339 345 346
329 326 322 326 327 328 328 328 332 330 331 329 326 324 326 324 326 324 324 326 322 324 326 326 328 327 325 328 329 328 329 331 333 333 332 326 331 329 329 327 336 338 339 345 346
329 329 326 327 327 328 327 327 330 330 329 330 328 330 331 330 329 328 330 331 327 324 326 326 327 326 326 327 329 327 329 326 328 322 327 329 329 328 329 330 333 340 340 343 344
332 329 328 327 327 328 328 326 329 326 327 328 330 329 331 331 332 330 330 327 329 329 324 326 328 326 326 326 324 327 325 327 326 332 332 329 329 329 332 335 333 334 335 341 343
333 329 326 327 328 329 328 327 328 327 324 329 328 330 329 331 331 331 329 326 324 329 327 329 326 332 328 329 330 325 326 323 325 326 332 332 330 330 333 332 332 334 335 337 340
332 331 327 328 329 323 329 327 323 322 322 325 326 328 329 327 331 331 329 326 322 327 329 330 330 334 333 328 324 326 328 325 330 331 324 326 330 326 329 329 332 333 334 337 339
329 329 328 328 327 325 322 322 321 322 321 323 324 323 323 325 330 327 326 322 321 326 327 329 331 332 331 330 332 334 335 325 322 322 329 330 331 328 331 333 333 333 334 335 339
324 329 326 325 320 323 323 323 323 320 320 320 321 321 323 324 322 326 324 322 320 323 323 329 330 331 330 331 333 336 335 334 333 333 332 329 331 333 333 334 332 336 335 335 338
322 319 318 325 323 320 319 320 322 322 320 320 322 321 322 324 323 324 322 322 321 320 323 322 324 325 324 325 326 329 331 329 333 334 336 335 334 333 333 332 336 337 336 338 337
319 320 319 319 318 320 319 322 322 321 321 322 323 321 321 323 323 323 322 322 323 321 322 323 324 324 324 322 322 322 323 324 326 329 331 332 332 332 330 338 340 339 338 338 338
316 317 319 317 319 321 322 322 321 320 320 321 321 321 322 322 320 320 320 321 321 321 323 323 323 325 322 322 323 323 323 323 324 325 328 330 331 335 340 339 336 336 335 337 338
Wind_Speed
4 4 4 3 3 3 3 2 1 2 3 4 4 3 3 3 3 5 6 5 2 1 4 6 8 11 9 6 3 2 1 1 1 1 1 4 3 3 3 9 4 5 2 3 20
5 5 4 4 3 3 3 2 2 2 3 4 3 3 3 3 4 6 4 8 6 2 3 6 8 11 4 3 2 1 1 1 0 1 1 2 5 7 5 8 5 4 5 8 20
5 5 5 5 4 4 3 3 2 2 3 4 4 4 4 3 3 2 7 10 9 6 3 4 6 7 3 2 1 1 2 3 2 1 4 2 4 4 5 7 8 10 13 18 21
6 6 5 5 5 5 4 3 3 2 3 4 4 4 4 2 4 4 4 8 9 7 4 3 5 4 4 5 6 3 2 2 1 1 0 1 2 4 11 5 5 8 14 20 22
7 6 6 5 5 5 5 4 4 3 3 4 5 5 4 4 3 4 3 7 9 8 4 1 4 3 6 6 5 7 5 3 4 4 3 3 5 5 9 8 5 12 17 19 19
8 7 6 6 6 5 5 5 4 3 4 4 4 5 5 4 5 3 1 7 8 7 3 1 3 5 2 4 3 6 7 7 3 4 3 4 3 1 2 10 12 16 20 18 18
9 8 7 6 6 6 5 5 4 3 4 4 4 5 8 9 6 5 4 6 7 5 2 1 2 3 7 4 6 6 7 7 2 3 2 2 6 10 6 11 16 18 20 19 18
10 9 8 7 6 5 5 4 4 3 4 4 4 4 7 8 13 9 7 5 5 5 5 2 3 4 1 5 4 4 2 6 5 2 1 2 7 3 8 15 17 19 20 20 20
11 10 8 7 6 5 5 4 3 3 4 5 4 4 5 6 13 14 10 5 6 5 3 1 2 2 2 4 4 5 5 11 8 2 1 5 13 6 7 15 15 19 22 22 21
11 10 8 7 5 5 4 3 3 3 4 5 6 3 3 2 6 17 14 9 5 3 3 1 2 2 1 4 4 8 8 9 12 6 7 10 20 15 7 14 18 19 21 24 23
12 10 8 6 5 5 3 2 1 2 8 5 2 1 2 3 3 10 16 14 7 2 3 2 4 10 7 2 5 7 7 12 17 8 6 7 16 20 13 17 19 22 24 26 27
12 10 8 6 5 5 5 4 3 1 4 8 15 16 11 3 3 4 16 9 4 6 3 3 11 7 3 2 3 5 10 12 12 4 4 8 13 16 11 20 25 26 27 27 26
12 10 7 6 5 5 7 6 4 3 2 3 4 7 11 9 6 7 18 12 3 5 3 6 3 6 1 5 7 9 7 6 8 14 2 7 9 6 3 10 14 22 26 28 28
13 8 5 3 2 7 10 5 5 5 2 2 1 1 7 6 4 7 18 12 3 7 4 8 7 10 10 10 8 9 5 7 10 11 9 3 9 16 4 8 11 15 22 27 26
9 5 2 4 7 11 5 2 5 4 2 3 3 5 8 5 5 5 17 12 10 5 5 5 3 4 5 5 8 6 2 9 9 7 5 4 4 7 6 7 8 6 16 22 26
8 4 2 6 10 8 2 5 3 3 3 2 4 3 6 1 2 6 6 5 4 5 5 10 3 4 5 2 7 6 8 4 1 1 6 2 3 8 4 9 13 7 6 17 23
8 6 5 9 9 4 4 4 2 1 2 3 2 4 3 4 2 2 6 10 7 5 8 9 15 11 9 11 6 3 5 4 3 3 7 3 4 10 17 10 10 12 5 15 21
9 8 9 11 7 4 4 1 2 1 3 1 2 5 3 1 2 3 4 3 3 0 1 3 4 5 6 6 4 5 4 5 4 6 12 2 5 5 8 13 8 5 3 11 21
7 10 9 7 4 3 1 1 1 0 3 5 2 3 2 2 3 3 4 1 1 2 7 3 6 4 6 4 5 4 6 2 2 1 3 2 4 11 3 6 9 3 4 8 15
6 9 7 7 5 3 2 1 1 2 5 1 1 2 2 3 2 2 2 3 3 3 3 1 6 1 2 4 1 10 7 3 2 3 4 3 5 6 11 12 13 11 8 10 12
5 4 5 7 3 1 1 1 3 2 2 1 1 2 2 1 2 2 1 2 4 4 1 0 4 4 3 4 2 4 4 2 1 3 5 7 5 5 6 9 11 14 13 8 11
3 3 6 3 1 2 1 1 4 4 6 3 3 4 2 2 1 2 3 2 6 2 2 3 2 5 11 3 5 5 3 6 7 6 3 4 8 3 5 10 5 11 13 10 9
3 4 4 3 2 1 1 1 4 5 5 5 3 4 2 2 1 1 1 2 6 3 2 1 2 7 6 5 4 2 2 2 2 1 7 7 7 4 9 11 9 7 13 12 6
2 2 3 4 4 1 1 2 1 6 4 4 3 2 2 2 3 2 2 1 7 1 2 3 4 9 12 9 3 8 6 8 5 5 5 10 10 9 10 13 20 24 21 18 8
5 3 2 2 3 2 0 1 1 2 4 8 3 4 2 1 1 2 1 3 2 2 2 2 6 6 11 12 13 14 17 16 15 13 9 12 11 14 13 15 18 19 19 19 12
5 2 2 2 1 2 2 1 1 2 4 2 3 2 0 2 1 2 2 3 4 2 2 1 5 4 13 15 16 20 22 21 21 18 19 20 24 15 17 15 17 18 24 18 17
10 6 2 3 1 2 1 1 2 1 3 4 1 0 3 2 4 9 11 14 12 4 5 4 4 3 6 4 7 11 16 17 18 18 15 18 17 10 9 14 18 21 20 24 18
Wind_Direction
12 1 2 6 0 353 351 348 324 255 229 233 228 217 220 233 238 238 229 222 194 221 25 1 359 350 1 20 37 59 54 337 295 222 48 163 176 85 116 147 161 184 183 214 175
2 356 349 345 341 335 338 338 317 265 241 239 234 228 233 253 260 241 220 214 216 233 328 347 355 352 13 21 62 45 339 331 259 259 339 202 211 152 163 166 195 196 219 174 169
352 350 341 333 329 324 317 310 295 268 246 236 227 225 234 266 285 140 185 205 218 241 285 335 347 358 24 6 54 148 304 327 16 284 282 181 201 191 199 204 209 192 163 162 166
348 345 336 328 323 317 307 296 286 272 247 237 230 230 232 235 152 150 164 189 204 222 237 350 354 12 2 12 1 314 302 246 306 319 207 251 174 219 211 233 223 188 175 168 172
346 338 330 325 319 314 308 297 284 269 252 240 232 226 223 239 225 164 109 172 184 197 199 343 29 25 6 348 352 17 337 312 299 271 258 227 237 253 241 213 195 177 174 177 181
342 334 328 322 316 312 307 297 284 269 252 242 237 229 220 238 217 225 156 169 185 190 181 81 12 360 353 344 353 325 310 297 288 267 253 241 255 253 298 198 172 176 180 185 190
338 330 324 320 315 309 306 299 288 274 243 235 236 235 233 225 211 205 172 150 174 193 201 53 28 13 328 332 338 331 332 327 332 304 274 234 255 237 228 179 181 185 188 192 197
333 327 322 319 315 307 304 294 283 254 229 233 247 261 249 231 225 199 194 181 179 183 203 252 347 336 332 318 351 348 38 351 357 298 333 222 289 253 194 182 188 190 194 199 204
328 323 320 319 313 303 299 291 287 237 212 218 239 238 254 223 216 206 195 186 181 157 148 237 331 57 12 354 319 26 337 327 328 288 300 230 290 288 172 196 200 198 198 204 210
324 318 315 314 308 296 286 280 272 238 216 227 238 272 242 144 196 200 200 188 155 120 117 145 96 153 91 342 301 326 319 317 314 312 269 266 267 263 213 203 212 213 209 206 210
323 316 310 301 287 274 253 221 236 257 219 209 153 149 91 124 127 191 196 195 191 129 170 39 226 237 271 253 292 288 292 308 306 319 285 260 268 283 239 222 216 217 215 215 214
323 314 304 291 271 251 222 196 196 152 297 254 246 246 233 237 341 194 189 172 165 209 132 225 243 256 256 198 256 269 301 311 296 317 290 296 283 283 252 236 227 219 218 218 219
323 313 298 285 270 231 199 190 190 311 260 279 243 241 238 229 222 210 184 180 159 203 205 246 241 99 259 265 262 271 268 297 299 326 308 294 285 287 265 259 248 237 227 223 214
322 306 282 266 224 155 146 163 246 233 316 110 182 197 177 167 199 192 190 180 150 241 202 272 274 243 249 255 233 281 215 284 307 328 316 342 311 311 295 284 250 241 222 220 213
345 326 245 174 140 144 151 205 147 163 132 26 107 144 165 185 134 174 181 199 207 184 198 226 224 210 216 239 182 281 304 313 309 290 298 246 265 279 313 306 319 295 224 215 207
8 19 155 162 147 141 137 151 147 226 86 98 122 156 164 207 104 118 154 162 174 193 229 260 251 245 249 187 208 302 301 303 72 263 265 55 272 288 314 317 317 315 238 208 202
40 55 108 141 145 133 127 143 225 68 324 41 71 175 182 169 142 135 166 195 211 191 232 259 257 258 239 272 216 227 280 297 265 245 296 119 247 269 289 304 304 309 260 199 197
50 63 111 129 138 133 145 251 81 17 22 18 58 99 143 131 70 86 104 208 173 144 164 294 297 178 163 207 216 187 271 266 282 287 304 166 243 296 283 327 319 318 259 202 196
64 78 105 129 138 148 130 77 95 297 334 339 106 96 86 90 118 113 73 60 302 224 224 220 249 270 220 179 192 156 219 350 193 148 257 271 272 281 330 336 358 325 257 216 210
116 86 78 129 106 126 82 186 223 257 321 249 88 8 116 33 123 128 133 17 348 14 266 81 281 268 18 245 241 242 142 200 206 250 272 249 279 278 324 343 344 1 300 250 214
138 96 73 123 110 69 163 219 275 270 322 272 114 110 95 101 62 113 102 70 1 11 116 194 233 284 268 204 292 158 206 204 237 252 268 277 262 204 278 326 325 344 344 269 234
117 96 140 65 79 38 95 296 348 337 21 50 80 68 82 54 100 154 153 80 358 331 17 27 283 269 289 312 278 264 215 214 243 220 230 297 266 188 267 307 317 340 340 315 255
82 104 154 27 116 69 338 107 28 25 32 26 66 36 54 88 198 159 177 148 27 38 43 26 253 297 272 174 138 71 37 29 309 287 208 235 262 187 298 317 321 345 345 346 291
96 120 58 70 70 14 21 20 116 37 58 47 82 83 102 100 40 162 214 203 343 278 26 203 248 254 269 298 313 282 264 294 281 260 241 233 262 275 319 328 324 341 355 350 321
51 69 62 85 67 64 5 4 55 46 42 33 78 61 66 182 337 221 268 319 285 279 169 287 264 251 271 278 273 270 278 276 257 256 262 274 271 284 307 316 320 332 343 354 344
67 43 46 56 0 157 5 56 53 63 0 35 84 28 4 223 263 248 279 217 261 197 216 17 273 279 286 276 267 267 265 263 264 256 255 260 269 282 294 306 329 348 340 355 345
40 31 56 10 60 190 77 91 56 270 84 74 29 272 216 180 302 281 267 264 261 272 265 263 269 264 275 306 295 271 264 256 261 262 259 260 284 316 326 331 343 345 350 340 342